Location: B?ogocice
(50.2413°N, 20.2361°E)
Time: 23:02:57
(UTC+00:00)

Aureole 1 Rocket - Pass Details

Date: 15 June 2024
Orbit: 376 x 1258 km, 73.9° (Epoch: 18 July)

Event Time Altitude Azimuth Distance (km) Brightness Sun altitude
Exits shadow 00:34:41 16° 235° (SW) 1,338 4.3 -12.1°
Maximum altitude 00:37:19 44° 303° (WNW) 774 3.6 -12.0°
Drops below altitude 10° 00:41:41 10° 15° (NNE) 2,081 7.2 -11.6°
Sets 00:44:24 0° 22° (NNE) 3,165 8.8 -11.4°
